Вернуться в каталог

PAYA

АктивенНаукаSSO
NORAD 67255·PAYLOAD·🇮🇷 Iran
Это название спутника еще не подтверждено официальными источниками.

Запущен Dec 28, 2025 с Vostochny Cosmodrome

Loading…

Ближайшие Пролёты (ближайшие 24 часа)

TLE

СвежийSource: Space-Track

Эпоха: Sep 14, 2026, 09:39 UTC

1 67255U 25313H   26257.40218468  .00001793  00000-0  11604-3 0  9999
2 67255  97.2771 320.5775 0068887  28.7476 331.7521 15.07445064 39099

Отслеживайте PAYA в реальном времени с AllMySat

Download on the App Store